Location: Izdebno
(52.6670°N, 16.2170°E)
Time: 14:00:49
(UTC+02:00)

A-11 Canister half - Pass Details

Date: 23 February 2024
Orbit: 1525 x 1683 km, 47.3° (Epoch: 24 April)

Event Time Altitude Azimuth Distance (km) Brightness Sun altitude
Exits shadow 02:52:08 23° 150° (SSE) 2,806 10.2 -36.2°
Drops below altitude 10° 02:55:22 10° 139° (SE) 3,718 11.0 -35.8°
Sets 02:58:36 0° 134° (SE) 4,715 11.7 -35.4°
